Springfield, IL

2:44 AM CDT on June 28, 2017 (GMT -0500)
Capital

Weather History for KSPI - June, 2013

Change the Weather History Date:

Wednesday, June 12, 2013

  Actual Average Record
Temperature  
Mean Temperature 83 °F 72 °F  
Max Temperature 95 °F 82 °F 95 °F (1925)
Min Temperature 70 °F 61 °F 43 °F (1903)
Degree Days  
Heating Degree Days 0 0  
Month to date heating degree days 12 11  
Since 1 June heating degree days 12 11  
Since 1 July heating degree days 5369 5481  
Cooling Degree Days 18 7  
Month to date cooling degree days 54 73  
Year to date cooling degree days 180 177  
Since 1 June cooling degree days 54 73  
Growing Degree Days 32 (Base 50)    
Moisture  
Dew Point 73 °F    
Average Humidity 73    
Maximum Humidity 100    
Minimum Humidity 46    
Precipitation  
Precipitation 0.00 in 0.15 in 2.16 in (1926)
Month to date precipitation 0.19 1.84  
Year to date precipitation 25.21 15.85  
Snow  
Snow 0.00 in 0.00 in 0.00 in ()
Month to date snowfall 0.0 0.0  
Since 1 June snowfall 0.0 0.0  
Since 1 July snowfall 33.1 20.9  
Snow Depth 0.00 in    
Sea Level Pressure  
Sea Level Pressure 29.78 in    
Wind  
Wind Speed 12 mph (SW)    
Max Wind Speed 25 mph    
Max Gust Speed 35 mph    
Visibility 10 miles    
Events      
T = Trace of Precipitation, MM = Missing Value Source: NWS Daily Summary

Daily Weather History Graph

Daily Weather History Graph

Search for Another Location

Airport or City:

Trip Planner

Search our weather history database for the weather conditions in past years. The results will help you decide how hot, cold, wet, or windy it might be!

Date:

Astronomy

Jun. 12, 2013 Rise Set
Actual Time 5:29 AM CDT 8:27 PM CDT
Civil Twilight 4:57 AM CDT 9:00 PM CDT
Nautical Twilight 4:15 AM CDT 9:41 PM CDT
Astronomical Twilight 3:28 AM CDT 10:29 PM CDT
Moon 9:08 AM CDT (6/12) 11:03 PM CDT (6/12)
Length of Visible Light 16h 03m
Length of Day
14h 57m
Waxing Crescent, 14% of the Moon is Illuminated
Jun 12
Waxing Crescent
Jun 16
First Quarter
Jun 23
Full
Jun 29
Last Quarter
Jul 8
New

Hourly Weather History & Observations

Time (CDT) Temp. Heat Index Dew Point Humidity Pressure Visibility Wind Dir Wind Speed Gust Speed Precip Events Conditions
12:52 AM 78.1 °F - 75.9 °F 93% 29.86 in 10.0 mi SW 5.8 mph - N/A   Clear
1:52 AM 75.0 °F - 75.0 °F 100% 29.86 in 10.0 mi SW 3.5 mph - N/A   Clear
2:52 AM 73.0 °F - 73.0 °F 100% 29.87 in 10.0 mi SSW 4.6 mph - 0.00 in   Clear
3:52 AM 70.0 °F - 70.0 °F 100% 29.88 in 10.0 mi Calm Calm - N/A   Clear
4:52 AM 73.0 °F - 73.0 °F 100% 29.88 in 10.0 mi SW 4.6 mph - N/A   Clear
5:52 AM 73.9 °F - 73.9 °F 100% 29.89 in 10.0 mi SW 5.8 mph - N/A   Clear
6:52 AM 75.9 °F - 75.9 °F 100% 29.91 in 10.0 mi SW 4.6 mph - N/A   Clear
7:52 AM 79.0 °F - 75.0 °F 88% 29.91 in 10.0 mi SW 8.1 mph - 0.00 in   Clear
8:52 AM 82.0 °F 89.4 °F 75.9 °F 82% 29.90 in 10.0 mi SSW 10.4 mph - N/A   Clear
9:52 AM 84.9 °F 93.3 °F 75.0 °F 72% 29.88 in 10.0 mi SW 10.4 mph - N/A   Clear
10:52 AM 87.1 °F 96.3 °F 75.0 °F 67% 29.87 in 10.0 mi SSW 15.0 mph - N/A   Clear
11:52 AM 89.1 °F 99.1 °F 75.0 °F 63% 29.81 in 10.0 mi South 16.1 mph - N/A   Clear
12:52 PM 91.9 °F 101.3 °F 73.9 °F 55% 29.77 in 10.0 mi SSW 20.7 mph 28.8 mph N/A   Clear
1:52 PM 93.9 °F 102.1 °F 72.0 °F 49% 29.75 in 10.0 mi SSW 19.6 mph 27.6 mph N/A   Clear
2:52 PM 93.9 °F 100.8 °F 71.1 °F 47% 29.74 in 10.0 mi SW 16.1 mph 28.8 mph N/A   Clear
3:52 PM 93.9 °F 99.1 °F 69.1 °F 44% 29.72 in 9.0 mi SW 15.0 mph 31.1 mph N/A   Clear
4:00 PM 93.2 °F 98.8 °F 69.8 °F 46% 29.74 in 7.0 mi SW 18.4 mph 26.5 mph N/A   Partly Cloudy
4:52 PM 93.0 °F 100.7 °F 72.0 °F 50% 29.71 in 7.0 mi SW 15.0 mph 27.6 mph N/A   Partly Cloudy
5:52 PM 91.9 °F 100.7 °F 73.0 °F 54% 29.68 in 10.0 mi SW 16.1 mph 24.2 mph N/A   Scattered Clouds
6:52 PM 91.9 °F 97.4 °F 70.0 °F 48% 29.65 in 10.0 mi SW 17.3 mph 28.8 mph N/A   Mostly Cloudy
7:52 PM 90.0 °F 95.4 °F 70.0 °F 52% 29.65 in 10.0 mi WSW 15.0 mph 31.1 mph N/A   Partly Cloudy
8:52 PM 88.0 °F 94.7 °F 72.0 °F 59% 29.65 in 10.0 mi WSW 13.8 mph 21.9 mph N/A   Clear
9:52 PM 86.0 °F 93.8 °F 73.9 °F 67% 29.67 in 10.0 mi WSW 15.0 mph - N/A   Partly Cloudy
10:52 PM 84.0 °F 91.9 °F 75.0 °F 74% 29.68 in 10.0 mi WSW 13.8 mph - N/A   Clear
11:52 PM 82.9 °F 91.8 °F 77.0 °F 82% 29.68 in 10.0 mi WSW 12.7 mph 18.4 mph N/A   Partly Cloudy